Tracking 28790 objects as of 19-Apr-2024
HD Live streaming from Space Station
objects crossing your sky now

THOR ABLESTAR R/B

Track THOR ABLESTAR R/B now!
10-day predictions


NORAD ID: 669
Int'l Code: 1963-038A
Perigee: 1,075.3 km
Apogee: 1,112.6 km
Inclination: 90.0 °
Period: 107.0 minutes
Semi major axis: 7464 km
RCS: 3.7272 m2 (large)
Launch date: September 28, 1963
Source: United States (US)
Launch site: AIR FORCE WESTERN TEST RANGE (AFWTR)

Note: This is a ROCKET BODY
Your satellite tracking list
Your tracking list is empty




NASA's NSSDC Master Catalog

Two Line Element Set (TLE):
1 00669U 63038A   24109.68757164  .00000072  00000-0  10534-3 0  9996
2 00669  90.0032 335.1005 0024990 219.6324 206.2667 13.46055048973481
Source of the keplerian elements: AFSPC